Ridgedale, MO

12:35 PM CST on December 10, 2016 (GMT -0600)
Branson

Weather History for KBBG - December, 2012

Change the Weather History Date:

Monday, December 17, 2012

  Actual Average (KHRO) Record (KHRO)
Temperature  
Mean Temperature 40 °F -  
Max Temperature 44 °F 47 °F 73 °F (1962)
Min Temperature 37 °F 27 °F 1 °F (1901)
Degree Days  
Heating Degree Days 24    
Moisture  
Dew Point 36 °F    
Average Humidity 86    
Maximum Humidity 100    
Minimum Humidity 66    
Precipitation  
Precipitation 0.00 in - - ()
Sea Level Pressure  
Sea Level Pressure 29.75 in    
Wind  
Wind Speed 6 mph (West)    
Max Wind Speed 14 mph    
Max Gust Speed 20 mph    
Visibility 7 miles    
Events Fog    
Averages and records for this station are not official NWS values.
T = Trace of Precipitation, MM = Missing Value Source: NWS Daily Summary

Daily Weather History Graph

Daily Weather History Graph

Search for Another Location

Airport or City:

Trip Planner

Search our weather history database for the weather conditions in past years. The results will help you decide how hot, cold, wet, or windy it might be!

Date:

Astronomy

Dec. 17, 2012 Rise Set
Actual Time 7:19 AM CST 4:59 PM CST
Civil Twilight 6:50 AM CST 5:28 PM CST
Nautical Twilight 6:17 AM CST 6:00 PM CST
Astronomical Twilight 5:46 AM CST 6:32 PM CST
Moon 10:34 AM CST (12/17) 10:13 PM CST (12/17)
Length of Visible Light 10h 37m
Length of Day
9h 40m
Waxing Crescent, 25% of the Moon is Illuminated
Dec 17
Waxing Crescent
Dec 19
First Quarter
Dec 28
Full
Jan 4
Last Quarter
Jan 11
New

Hourly Weather History & Observations

Time (CST) Temp. Windchill Dew Point Humidity Pressure Visibility Wind Dir Wind Speed Gust Speed Precip Events Conditions
12:15 AM 44.6 °F 40.7 °F 37.4 °F 76% 29.71 in 10.0 mi NW 6.9 mph - N/A   Partly Cloudy
12:55 AM 42.8 °F 41.1 °F 37.4 °F 81% 29.71 in 10.0 mi West 3.5 mph - N/A   Partly Cloudy
1:15 AM 42.8 °F - 39.2 °F 87% 29.71 in 10.0 mi Calm Calm - N/A   Partly Cloudy
1:35 AM 42.8 °F - 39.2 °F 87% 29.70 in 10.0 mi Calm Calm - N/A   Scattered Clouds
1:55 AM 41.0 °F 39.0 °F 39.2 °F 93% 29.69 in 10.0 mi NNE 3.5 mph - N/A   Partly Cloudy
2:15 AM 41.0 °F 39.0 °F 39.2 °F 93% 29.70 in 10.0 mi WNW 3.5 mph - N/A   Scattered Clouds
2:35 AM 39.2 °F - 39.2 °F 100% 29.69 in 7.0 mi Calm Calm - N/A   Scattered Clouds
2:55 AM 39.2 °F 37.0 °F 37.4 °F 93% 29.69 in 5.0 mi NNW 3.5 mph - N/A   Clear
3:15 AM 37.4 °F 32.8 °F 37.4 °F 100% 29.69 in 4.0 mi NNW 5.8 mph - N/A   Clear
3:55 AM 39.2 °F 34.2 °F 39.2 °F 100% 29.68 in 2.0 mi NNW 6.9 mph - N/A   Overcast
4:15 AM 39.2 °F 32.5 °F 39.2 °F 100% 29.68 in 0.8 mi NNW 10.4 mph - N/A   Overcast
4:35 AM 39.2 °F 33.6 °F 39.2 °F 100% 29.68 in 0.2 mi NW 8.1 mph - N/A Fog Fog
4:55 AM 39.2 °F 33.0 °F 39.2 °F 100% 29.69 in 0.2 mi NW 9.2 mph - N/A Fog Fog
5:15 AM 39.2 °F 32.5 °F 39.2 °F 100% 29.69 in 0.2 mi NW 10.4 mph - N/A Fog Fog
5:35 AM 39.2 °F 32.5 °F 39.2 °F 100% 29.69 in 0.2 mi NW 10.4 mph - N/A Fog Fog
6:51 AM 37.4 °F 30.8 °F 37.4 °F 100% 29.72 in 1.5 mi NW 9.2 mph - N/A   Overcast
7:50 AM 39.2 °F 33.6 °F 39.2 °F 100% 29.75 in 5.0 mi WNW 8.1 mph - N/A   Overcast
8:47 AM 39.2 °F 32.5 °F 37.4 °F 93% 29.75 in 5.0 mi NW 10.4 mph 18.4 mph N/A   Overcast
9:06 AM 39.2 °F 31.6 °F 37.4 °F 93% 29.75 in 4.0 mi NW 12.7 mph 18.4 mph N/A   Overcast
9:50 AM 39.2 °F 33.0 °F 37.4 °F 93% 29.76 in 6.0 mi WNW 9.2 mph - N/A   Overcast
10:48 AM 41.0 °F 37.1 °F 35.6 °F 81% 29.76 in 8.0 mi WNW 5.8 mph - N/A   Overcast
11:48 AM 41.0 °F 36.4 °F 35.6 °F 81% 29.77 in 9.0 mi WNW 6.9 mph - N/A   Overcast
12:53 PM 42.8 °F 36.2 °F 37.4 °F 81% 29.76 in 8.0 mi WNW 12.7 mph 19.6 mph N/A   Mostly Cloudy
1:50 PM 44.6 °F 39.7 °F 35.6 °F 71% 29.75 in 10.0 mi WNW 9.2 mph - N/A   Mostly Cloudy
2:50 PM 44.6 °F 38.1 °F 35.6 °F 71% 29.76 in 10.0 mi NW 13.8 mph 19.6 mph N/A   Mostly Cloudy
3:55 PM 44.6 °F 40.7 °F 33.8 °F 66% 29.75 in 10.0 mi WSW 6.9 mph - N/A   Clear
6:45 PM 39.2 °F - 32.0 °F 75% 29.79 in 10.0 mi Calm Calm - N/A   Clear
7:50 PM 37.4 °F - 32.0 °F 81% 29.81 in 10.0 mi Calm Calm - N/A   Clear
8:15 PM 37.4 °F 33.8 °F 32.0 °F 81% 29.82 in 7.0 mi SW 4.6 mph - N/A   Clear
8:35 PM 37.4 °F 33.8 °F 32.0 °F 81% 29.82 in 7.0 mi SW 4.6 mph - N/A   Clear
8:47 PM 37.4 °F - 32.0 °F 81% 29.82 in 7.0 mi Calm Calm - N/A   Clear
8:55 PM 37.4 °F 34.9 °F 32.0 °F 81% 29.82 in 7.0 mi SW 3.5 mph - N/A   Clear
9:15 PM 37.4 °F 32.8 °F 32.0 °F 81% 29.83 in 6.0 mi SW 5.8 mph - N/A   Clear
9:35 PM 37.4 °F 34.9 °F 32.0 °F 81% 29.83 in 7.0 mi SW 3.5 mph - N/A   Clear
9:55 PM 37.4 °F 33.8 °F 32.0 °F 81% 29.82 in 7.0 mi SSW 4.6 mph - N/A   Clear
10:15 PM 37.4 °F 32.1 °F 32.0 °F 81% 29.82 in 7.0 mi SSW 6.9 mph - N/A   Clear
10:35 PM 39.2 °F 34.2 °F 32.0 °F 75% 29.82 in 7.0 mi SSW 6.9 mph - N/A   Clear
10:55 PM 39.2 °F 35.9 °F 32.0 °F 75% 29.82 in 8.0 mi SSW 4.6 mph - N/A   Clear
11:15 PM 39.2 °F 35.0 °F 32.0 °F 75% 29.81 in 8.0 mi SSW 5.8 mph - N/A   Clear
11:35 PM 39.2 °F 35.9 °F 32.0 °F 75% 29.81 in 9.0 mi SSW 4.6 mph - N/A   Clear
11:55 PM 39.2 °F 35.9 °F 32.0 °F 75% 29.80 in 9.0 mi SSW 4.6 mph - N/A   Clear